Regional Weather Roundup
Issued by NWS Newport/Morehead, NC

Current Version | Previous Version | Text Only | Print | Product List | Glossary Off
Versions: 1 2 3 4 5 6 7 8 9 10 11 12 13 14 15 16 17 18 19 20 21 22 23 24 25 26 27 28 29 30 31 32 33 34 35 36 37 38 39 40 41 42 43 44 45 46 47 48 49 50
000 ASUS42 KMHX 271925 RWRMHX WEATHER ROUNDUP FOR EASTERN NORTH CAROLINA NATIONAL WEATHER SERVICE NEWPORT/MOREHEAD CITY NC 300 PM EDT WED MAY 27 2015 NOTE: "FAIR" INDICATES FEW OR NO CLOUDS BELOW 12,000 FEET WITH NO SIGNIFICANT WEATHER AND/OR OBSTRUCTIONS TO VISIBILITY NCZ015>017-031-032-045>047-102-103-272000- NORTH COAST CITY SKY/WX TMP DP RH WIND PRES REMARKS EDENTON N/A 83 70 66 S15 30.21F ELIZABETH CITY MOSUNNY 82 69 64 SE14 30.22F KITTY HAWK CLEAR 80 65 61 S9G16 30.25F MANTEO SUNNY 78 66 67 S18 30.26F $$ NCZ045>047-081-094-103-104-272000- CENTRAL COAST CITY SKY/WX TMP DP RH WIND PRES REMARKS FRISCO SUNNY 82 63 52 S16 30.28F SWANQUARTER N/A 79 N/A N/A S15G25 30.21F $$ NCZ095-097-098-100-101-272000- SOUTHERN COAST CITY SKY/WX TMP DP RH WIND PRES REMARKS BEAUFORT SUNNY 78 67 68 SE18 30.27F CEDAR ISLAND N/A 79 N/A N/A SE10G22 30.30S JACKSONVILLE PTSUNNY 80 67 64 S14G23 30.23F PINEY ISLAND MOCLDY N/A N/A N/A S13G20 30.26F WILMINGTON SUNNY 83 67 58 S15 30.23F $$ NCZ011>013-027>030-043-044-078>080-089-090>093-098-272000- COASTAL PLAIN CITY SKY/WX TMP DP RH WIND PRES REMARKS AHOSKIE MOSUNNY 84 70 62 S9 30.19F CLINTON MOSUNNY 86 71 61 SW5 30.21F ELIZABETHTOWN PTSUNNY 84 68 58 SW7 30.21F GOLDSBORO PTSUNNY 85 68 56 SW1 30.17F GREENVILLE MOSUNNY 82 70 65 SE8 30.21F HAVELOCK PTSUNNY 81 66 60 S14G21 30.26F KENANSVILLE MOSUNNY 85 68 56 SW5 30.22F KINSTON MOSUNNY 86 66 51 S9 30.20F NEW BERN PTSUNNY 83 67 58 S17 30.24F RICHLANDS PTSUNNY 82 66 57 SE12 30.22F ROCKY MOUNT MOSUNNY 87 66 49 S6 30.19F WASHINGTON MOSUNNY 83 70 64 SE8 30.21F WHITEVILLE MOSUNNY 84 68 59 S12 30.21F $$ AMZ130-135-150-152-154-156-158-170-250-252-270-ANZ085-086-088-633-658-670-272000- MARINE OBSERVATIONS STATION/POSITION TIME TEMP WIND PRES WAVE SWELL AIR SEA DIR/SP/G HT/PER HT/PER (UTC) (F) (DEG/KT/KT) (MB) (FT/S) (FT/S) CHESAPEAKE LIGHT 1900 69 170/ 29/ 30 1022.7 64 E VA BEACH 1850 67 64 170/ 14/ 16 1024.4 3/ 5 2/ 7 DUCK 1900 71 57 160/ 17/ 20 1022.8 2 E DUCK 1911 65 N/A 2/ 5 OREGON INLET 1900 78 77 160/ 14/ 18 1024.7 13E OREGON INLT 1900 71 N/A 2/ 7 HATTERAS CG 1900 76 75 160/ 12/ 16 1024.9 DIAMOND BUOY 1850 74 77 160/ 12/ 16 1025.9 3/ 8 2/ 8 CAPE LOOKOUT 1900 74 150/ 14/ 15 1024.8 BEAUFORT LAB 1900 77 75 170/ 13/ 16 1024.1 27 SE WRIGHTSVLE 1900 77 170/ 12/ 14 N/A 5 SE WRIGHTSVLE 1808 77 77 180/ 10/ 12 1024.6 225 S CAPE HAT 1850 74 75 100/ 10/ 10 1025.5 4/ 7 3/ 7 41 SE CHARLESTON 1850 78 78 100/ 8/ 10 1023.8 3/ 7 3/ 7 $$

USA.gov is the U.S. government's official web portal to all federal, state and local government web resources and services.